This demonstration page uses our WeatherBlox Daily Observations layout. Learn more.

Left ArrowRight Arrow

Hourly Observations for August 24, 2018

Temp ( °F °C ) Dew Point ( °F °C ) Humidity (%) Winds ( mph kmh ) Pressure ( in mb ) Visibility ( mi km ) Precip ( " mm )
12:17 am 00:17 Clear 59 15 57 14 94 94 S 3 6 30.12 1020 10 16.0934 N/A
12:36 am 00:36 Clear 59 15 57 14 94 94 SSE 3 6 30.12 1020 10 16.0934 N/A
12:56 am 00:56 Clear 57 14 57 14 100 100 SSE 3 6 30.12 1020 10 16.0934 N/A
1:17 am 01:17 Clear 55 13 55 13 100 100 Calm 30.12 1020 10 16.0934 N/A
1:36 am 01:36 Clear 55 13 55 13 100 100 SE 5 7 30.12 1020 10 16.0934 N/A
1:56 am 01:56 Clear 57 14 57 14 100 100 SE 5 7 30.12 1020 10 16.0934 N/A
2:17 am 02:17 Clear 57 14 57 14 100 100 SE 5 7 30.12 1020 10 16.0934 N/A
2:36 am 02:36 Clear 57 14 57 14 100 100 SE 6 9 30.12 1020 10 16.0934 N/A
2:56 am 02:56 Clear 57 14 57 14 100 100 SE 5 7 30.12 1020 10 16.0934 N/A
3:17 am 03:17 Clear 57 14 57 14 100 100 SE 5 7 30.12 1020 10 16.0934 N/A
3:36 am 03:36 Clear 55 13 55 13 100 100 ESE 5 7 30.09 1019 10 16.0934 N/A
3:56 am 03:56 Clear 55 13 55 13 100 100 SE 3 6 30.09 1019 10 16.0934 N/A
4:17 am 04:17 Clear 57 14 55 13 94 94 SE 3 6 30.09 1019 10 16.0934 N/A
4:36 am 04:36 Clear 57 14 55 13 94 94 SE 5 7 30.09 1019 10 16.0934 N/A
4:57 am 04:57 Clear 57 14 55 13 94 94 S 3 6 30.09 1019 10 16.0934 N/A
5:17 am 05:17 Clear 57 14 55 13 94 94 Calm 30.12 1020 10 16.0934 N/A
5:36 am 05:36 Clear 54 12 54 12 100 100 Calm 30.15 1021 10 16.0934 N/A
5:57 am 05:57 Clear 54 12 54 12 100 100 SSE 3 6 30.15 1021 10 16.0934 N/A
6:17 am 06:17 Clear 54 12 54 12 100 100 SE 3 6 30.12 1020 10 16.0934 N/A
6:36 am 06:36 Clear 54 12 54 12 100 100 SE 5 7 30.15 1021 10 16.0934 N/A
6:57 am 06:57 Clear 55 13 55 13 100 100 SE 3 6 30.12 1020 10 16.0934 N/A
7:17 am 07:17 Sunny 54 12 54 12 100 100 SE 5 7 30.12 1020 10 16.0934 N/A
7:36 am 07:36 Sunny 55 13 55 13 100 100 SE 3 6 30.09 1019 10 16.0934 N/A
7:57 am 07:57 Sunny 57 14 57 14 100 100 SSE 3 6 30.09 1019 10 16.0934 N/A
8:16 am 08:16 Sunny 59 15 57 14 94 94 SSE 5 7 30.12 1020 10 16.0934 N/A
8:37 am 08:37 Sunny 59 15 59 15 100 100 SE 3 6 30.12 1020 10 16.0934 N/A
8:56 am 08:56 Sunny 61 16 59 15 94 94 SSE 3 6 30.12 1020 10 16.0934 N/A
9:17 am 09:17 Sunny 63 17 61 16 94 94 SSE 7 11 30.12 1020 10 16.0934 N/A
9:37 am 09:37 Sunny 64 18 61 16 88 88 S 6 9 30.12 1020 10 16.0934 N/A
9:56 am 09:56 Sunny 64 18 61 16 88 88 S 5 7 30.12 1020 10 16.0934 N/A
10:17 am 10:17 Sunny 66 19 63 17 88 88 S 7 11 30.12 1020 10 16.0934 N/A
10:37 am 10:37 Sunny 66 19 63 17 88 88 SSE 5 7 30.12 1020 10 16.0934 N/A
10:56 am 10:56 Sunny 68 20 63 17 83 83 S 7 11 30.12 1020 10 16.0934 N/A
11:17 am 11:17 Sunny 68 20 64 18 88 88 S 5 7 30.12 1020 10 16.0934 N/A
11:36 am 11:36 Sunny 72 22 64 18 78 78 SSE 7 11 30.09 1019 10 16.0934 N/A
11:56 am 11:56 Sunny 72 22 64 18 78 78 SSW 7 11 30.09 1019 10 16.0934 N/A
12:17 pm 12:17 Sunny 73 23 64 18 74 74 S 9 15 30.09 1019 10 16.0934 N/A
12:36 pm 12:36 Sunny 73 23 63 17 69 69 S 9 15 30.09 1019 10 16.0934 N/A
12:56 pm 12:56 Sunny 73 23 64 18 74 74 SSW 8 13 30.09 1019 10 16.0934 N/A
1:17 pm 13:17 Sunny 73 23 64 18 74 74 S 8 13 30.09 1019 10 16.0934 N/A
1:36 pm 13:36 Sunny 73 23 63 17 69 69 S 9 15 30.06 1018 10 16.0934 N/A
1:57 pm 13:57 Sunny 72 22 63 17 73 73 SSW 9 15 30.06 1018 10 16.0934 N/A
2:17 pm 14:17 Sunny 72 22 63 17 73 73 S 7 11 30.06 1018 10 16.0934 N/A
2:36 pm 14:36 Sunny 72 22 63 17 73 73 S 8 13 30.03 1017 10 16.0934 N/A
2:57 pm 14:57 Sunny 72 22 63 17 73 73 S 9 15 30.03 1017 10 16.0934 N/A
3:17 pm 15:17 Partly Cloudy 72 22 64 18 78 78 S 9 15 30.03 1017 10 16.0934 N/A
3:36 pm 15:36 Partly Cloudy 72 22 64 18 78 78 S 7 11 30.03 1017 10 16.0934 N/A
3:57 pm 15:57 Sunny 73 23 64 18 74 74 S 13 20 30 1016 10 16.0934 N/A
4:16 pm 16:16 Sunny 73 23 64 18 74 74 S 14 22 30 1016 10 16.0934 N/A
4:36 pm 16:36 Partly Cloudy 73 23 64 18 74 74 SSW 15 24 30.03 1017 10 16.0934 N/A
4:57 pm 16:57 Partly Cloudy 73 23 64 18 74 74 S 10 17 30.03 1017 10 16.0934 N/A
5:16 pm 17:16 Partly Cloudy 73 23 64 18 74 74 SSW 16 26 30 1016 10 16.0934 N/A
5:36 pm 17:36 Sunny 75 24 66 19 74 74 S 14 22 30 1016 10 16.0934 N/A
5:56 pm 17:56 Mostly Cloudy 73 23 66 19 78 78 SSW 13 20 30.03 1017 10 16.0934 N/A
6:16 pm 18:16 Cloudy 73 23 64 18 74 74 S 10 17 30 1016 10 16.0934 N/A
6:37 pm 18:37 Mostly Cloudy 73 23 64 18 74 74 SSW 12 19 30 1016 10 16.0934 N/A
6:56 pm 18:56 Partly Cloudy 72 22 64 18 78 78 SSW 10 17 30 1016 10 16.0934 N/A
7:17 pm 19:17 Mostly Cloudy 70 21 64 18 83 83 S 10 17 30 1016 10 16.0934 N/A
7:37 pm 19:37 Mostly Cloudy 70 21 64 18 83 83 S 9 15 30 1016 10 16.0934 N/A
7:56 pm 19:56 Cloudy 68 20 63 17 83 83 S 7 11 30.03 1017 10 16.0934 N/A
8:17 pm 20:17 Cloudy 68 20 64 18 88 88 S 7 11 30.03 1017 10 16.0934 N/A
8:37 pm 20:37 Cloudy 68 20 64 18 88 88 SSE 7 11 30.03 1017 10 16.0934 N/A
8:56 pm 20:56 Cloudy 68 20 64 18 88 88 S 6 9 30.03 1017 10 16.0934 N/A
9:17 pm 21:17 Cloudy 68 20 64 18 88 88 S 6 9 30.03 1017 10 16.0934 N/A
9:36 pm 21:36 Cloudy 68 20 64 18 88 88 S 6 9 30.03 1017 10 16.0934 N/A
9:56 pm 21:56 Cloudy 68 20 66 19 94 94 S 5 7 30.06 1018 10 16.0934 N/A
10:17 pm 22:17 Cloudy 68 20 66 19 94 94 S 5 7 30.06 1018 10 16.0934 N/A
10:37 pm 22:37 Cloudy 68 20 66 19 94 94 S 5 7 30.06 1018 10 16.0934 N/A
10:56 pm 22:56 Cloudy 68 20 66 19 94 94 SSE 6 9 30.06 1018 10 16.0934 N/A
11:17 pm 23:17 Cloudy 68 20 66 19 94 94 S 6 9 30.06 1018 10 16.0934 N/A
11:36 pm 23:36 Cloudy 68 20 66 19 94 94 S 6 9 30.06 1018 10 16.0934 N/A
11:56 pm 23:56 Cloudy 68 20 66 19 94 94 SSE 6 9 30.06 1018 10 16.0934 N/A

Powered by AerisWeather